Погода в Баня-Луке

Босния и Герцеговина     44°47′26″N   17°12′20″E
темп.,
°C
ветер,
м/с
пор.,
м/с
влажн.,
%
обл.,
%
осадки,
мм/ч
давл.,
гПа
погр.,
м
1 марта, пн
пн101:00+2зюз11820 0.0 103322
04:00+1юз11840 0.0 103122
07:00+1зюз11830 0.0 103222
10:00+7сз22550 0.0 1032596
13:00+10с33490 0.0 10311037
16:00+9ссв33570 0.0 1031986
19:00+5вюв22740 0.0 103322
22:00+3юв11790 0.0 103422
2 марта, вт
вт201:00+2ююв11841 0.0 103622
04:00+1ю11880 0.0 103522
07:00+1ююв11870 0.0 103622
10:00+7всв23630 0.0 1035606
13:00+10всв33490 0.0 1034911
16:00+10всв33500 0.0 1033816
19:00+5вюв12720 0.0 103422
22:00+4ю11770 0.0 103422
3 марта, ср
ср301:00+3ююз11800 0.0 103422
04:00+2ююз11790 0.0 103322
07:00+2ююз11730 0.0 103222
10:00+9св11490 0.0 1031357
13:00+13св21410 0.0 1030568
16:00+13ссв11440 0.0 1028541
19:00+7юв11630 0.0 102822
22:00+6ююз11700 0.0 102722
4 марта, чт
чт401:00+5ююз22730 0.0 102622
04:00+4ююз227025 0.0 102524
07:00+4ююз226040 0.0 102432
10:00+12юз123539 0.0 1022334
13:00+16зсз242244 0.0 10201168
16:00+14зсз1335100 0.0 1018384
19:00+9юз2244100 0.0 101824
22:00+6ююз225897 0.0 101839
5 марта, пт
пт501:00+5ююз236995 0.0 101851
04:00+4ююз237597 0.0 101652
07:00+3ююз337257 0.0 101769
10:00+11юз264019 0.0 1016895
13:00+15з364031 0.0 10151929
16:00+13зюз255089 0.0 1015767
19:00+8ююз227079 0.2 101535
22:00+6ююз227816 0.0 101734